Location: Arrington
(35.8681°N, 86.7092°W)
Time: 15:58:40
(UTC+00:00)

Cosmos 2322 - Pass Details

Date: 23 November 2019
Orbit: 841 x 854 km, 71.0° (Epoch: 13 December)

Event Time Altitude Azimuth Distance (km) Brightness Sun altitude
Exits shadow 10:58:27 - 343° (NNW) 2,740 6.1 -18.6°
Reaches altitude 10° 10:59:09 10° 344° (NNW) 2,474 5.9 -18.4°
Maximum altitude 11:04:48 67° 67° (ENE) 913 4.0 -17.3°
Drops below altitude 10° 11:10:24 10° 150° (SSE) 2,453 6.7 -16.2°
Sets 11:12:51 0° 153° (SSE) 3,382 7.5 -15.7°
